Location: Unspecified
(0.0000°N, 0.0000°E)
Time: 15:11:54
(UTC+01:00)

ADEOS II - Visible Passes

Search period start: 04 December 2016 00:00
Search period end: 14 December 2016 00:00
Orbit: 800 x 802 km, 98.3° (Epoch: 04 December)

Date Brightness Start Highest point End Pass type
(mag) Time Alt. Az. Time Alt. Az. Time Alt. Az.
04 Dec 4.1 04:04:08 24° E 04:04:58 25° ESE 04:09:10 10° SSE visible
04 Dec 3.3 05:45:06 20° W 05:45:06 20° W 05:48:15 10° SW visible
05 Dec 4.9 03:37:33 11° E 03:38:41 11° ESE 03:40:22 10° ESE visible
05 Dec 2.4 05:18:30 42° W 05:18:30 42° W 05:23:04 10° SSW visible
06 Dec 1.9 04:51:54 87° SSW 04:51:54 87° SSW 04:57:05 10° SSW visible
07 Dec 3.1 04:25:18 43° E 04:25:31 44° ESE 04:30:30 10° S visible
07 Dec 4.0 06:06:16 10° W 06:06:16 10° W 06:06:24 10° W visible
08 Dec 4.2 03:58:43 21° E 03:59:15 21° ESE 04:03:09 10° SSE visible
08 Dec 3.2 05:39:40 23° W 05:39:40 23° W 05:42:51 10° SW visible
09 Dec 2.3 05:13:04 46° WSW 05:13:04 46° WSW 05:17:28 10° SSW visible
10 Dec 2.1 04:46:28 74° SSE 04:46:28 74° SSE 04:51:22 10° S visible
11 Dec 3.3 04:19:53 38° ESE 04:19:53 38° ESE 04:24:38 10° S visible
11 Dec 3.9 06:00:51 12° W 06:00:51 12° W 06:01:38 10° WSW visible
12 Dec 4.4 03:53:17 18° E 03:53:32 18° ESE 03:57:04 10° SE visible
12 Dec 3.2 05:34:15 25° WSW 05:34:15 25° WSW 05:37:23 10° SW visible
13 Dec 2.3 05:07:39 49° WSW 05:07:39 49° WSW 05:11:50 10° SSW visible
